Total_Precipitation_Accumulation
0.75 0.75 0.70 0.70 0.73 0.73 0.67 0.63 0.59 0.57 0.54 0.34 0.20 0.11 0.09 0.06 0.06 0.04 0.02 0.02 0.03 0.03 0.02 0.01 0.01 0.02 0.02 0.03 0.04 0.05 0.05 0.05 0.04 0.03 0.02 0.02 0.01 0.01
0.64 0.67 0.67 0.66 0.68 0.67 0.67 0.67 0.61 0.55 0.54 0.42 0.31 0.18 0.16 0.12 0.10 0.05 0.03 0.03 0.02 0.02 0.02 0.02 0.02 0.01 0.02 0.02 0.02 0.02 0.02 0.02 0.01 0.01 0.01 0.01 0.01 0.01
0.51 0.50 0.57 0.65 0.64 0.61 0.64 0.64 0.65 0.63 0.55 0.48 0.32 0.22 0.23 0.21 0.21 0.12 0.06 0.05 0.05 0.05 0.03 0.02 0.02 0.02 0.02 0.02 0.01 0.01 0.01 0.01 0.01 0.01 0.01 0.01 0.01 0.01
0.38 0.38 0.39 0.44 0.50 0.55 0.60 0.58 0.61 0.62 0.57 0.52 0.41 0.32 0.32 0.29 0.30 0.25 0.17 0.14 0.15 0.18 0.18 0.09 0.06 0.07 0.05 0.03 0.02 0.01 0.01 0.01 0.01 0.01 0.02 0.02 0.01 0.02
0.37 0.35 0.33 0.33 0.40 0.44 0.51 0.59 0.60 0.56 0.54 0.48 0.49 0.47 0.38 0.33 0.33 0.29 0.25 0.30 0.28 0.24 0.31 0.26 0.19 0.14 0.09 0.07 0.06 0.04 0.02 0.02 0.02 0.02 0.02 0.02 0.01 0.01
0.37 0.36 0.34 0.34 0.34 0.38 0.44 0.55 0.62 0.63 0.59 0.51 0.48 0.49 0.44 0.37 0.33 0.34 0.41 0.47 0.43 0.33 0.34 0.36 0.33 0.25 0.19 0.17 0.14 0.10 0.08 0.06 0.04 0.04 0.04 0.04 0.04 0.04
0.36 0.34 0.34 0.30 0.28 0.32 0.31 0.41 0.49 0.58 0.62 0.62 0.57 0.52 0.46 0.39 0.36 0.38 0.41 0.48 0.47 0.49 0.44 0.40 0.37 0.33 0.30 0.25 0.20 0.17 0.16 0.14 0.12 0.10 0.10 0.09 0.08 0.07
0.36 0.35 0.33 0.31 0.28 0.23 0.19 0.20 0.28 0.37 0.46 0.54 0.60 0.58 0.56 0.50 0.48 0.45 0.42 0.40 0.40 0.47 0.44 0.44 0.42 0.37 0.34 0.29 0.30 0.31 0.25 0.19 0.15 0.13 0.12 0.10 0.09 0.09
0.31 0.38 0.42 0.39 0.41 0.41 0.30 0.22 0.22 0.21 0.23 0.31 0.42 0.50 0.51 0.52 0.46 0.45 0.46 0.49 0.42 0.39 0.34 0.33 0.32 0.29 0.25 0.22 0.22 0.23 0.24 0.22 0.20 0.18 0.15 0.14 0.13 0.13
0.28 0.35 0.48 0.52 0.55 0.55 0.47 0.42 0.35 0.28 0.23 0.21 0.31 0.36 0.37 0.43 0.45 0.48 0.46 0.38 0.33 0.27 0.21 0.17 0.16 0.15 0.15 0.15 0.15 0.14 0.14 0.15 0.15 0.15 0.15 0.15 0.15 0.15
0.26 0.32 0.47 0.54 0.61 0.62 0.56 0.57 0.49 0.34 0.27 0.29 0.26 0.24 0.26 0.32 0.35 0.40 0.42 0.36 0.31 0.27 0.20 0.13 0.11 0.10 0.09 0.09 0.08 0.07 0.07 0.07 0.06 0.06 0.07 0.07 0.08 0.09
0.28 0.32 0.47 0.53 0.56 0.52 0.50 0.64 0.65 0.48 0.31 0.29 0.30 0.30 0.29 0.35 0.45 0.52 0.61 0.56 0.44 0.36 0.27 0.21 0.20 0.19 0.17 0.15 0.09 0.05 0.04 0.03 0.03 0.03 0.03 0.04 0.05 0.05
0.17 0.21 0.20 0.30 0.34 0.36 0.45 0.54 0.61 0.43 0.30 0.36 0.42 0.40 0.36 0.34 0.38 0.44 0.54 0.62 0.59 0.50 0.43 0.35 0.31 0.30 0.25 0.19 0.13 0.08 0.04 0.03 0.02 0.03 0.03 0.04 0.04 0.04
0.10 0.12 0.11 0.17 0.23 0.27 0.32 0.35 0.37 0.36 0.33 0.39 0.37 0.27 0.25 0.23 0.18 0.20 0.26 0.32 0.33 0.32 0.30 0.26 0.26 0.26 0.20 0.15 0.11 0.08 0.05 0.04 0.03 0.03 0.03 0.03 0.03 0.03
0.04 0.07 0.07 0.10 0.13 0.19 0.25 0.26 0.30 0.41 0.44 0.37 0.30 0.19 0.15 0.11 0.09 0.12 0.16 0.16 0.16 0.13 0.10 0.10 0.12 0.12 0.09 0.07 0.05 0.05 0.04 0.03 0.03 0.02 0.03 0.03 0.03 0.03
0.06 0.07 0.07 0.10 0.14 0.17 0.22 0.28 0.36 0.41 0.46 0.35 0.21 0.14 0.11 0.09 0.09 0.10 0.11 0.10 0.11 0.11 0.08 0.06 0.07 0.05 0.05 0.05 0.05 0.05 0.05 0.05 0.06 0.07 0.06 0.05 0.04 0.04
0.09 0.15 0.22 0.28 0.27 0.28 0.33 0.36 0.39 0.35 0.34 0.29 0.22 0.19 0.18 0.16 0.11 0.07 0.06 0.06 0.07 0.08 0.09 0.09 0.07 0.05 0.04 0.05 0.06 0.07 0.07 0.06 0.08 0.11 0.10 0.09 0.09 0.11
0.15 0.19 0.29 0.40 0.39 0.42 0.44 0.45 0.45 0.40 0.36 0.30 0.26 0.21 0.18 0.15 0.12 0.10 0.07 0.08 0.09 0.07 0.06 0.03 0.02 0.02 0.02 0.04 0.04 0.06 0.07 0.07 0.08 0.08 0.07 0.05 0.05 0.09
0.17 0.21 0.38 0.42 0.37 0.39 0.43 0.43 0.35 0.27 0.24 0.21 0.15 0.10 0.08 0.06 0.06 0.06 0.05 0.05 0.04 0.03 0.02 0.02 0.02 0.03 0.03 0.05 0.07 0.03 0.05 0.08 0.07 0.05 0.05 0.04 0.02 0.03
0.21 0.32 0.45 0.48 0.41 0.33 0.27 0.20 0.15 0.11 0.09 0.08 0.06 0.04 0.03 0.02 0.02 0.02 0.01 0.01 0.01 0.02 0.03 0.05 0.05 0.04 0.05 0.07 0.08 0.08 0.04 0.05 0.05 0.04 0.03 0.03 0.02 0.02
0.16 0.25 0.33 0.38 0.31 0.17 0.08 0.05 0.04 0.03 0.03 0.03 0.03 0.02 0.02 0.02 0.01 0.01 0.01 0.01 0.01 0.03 0.04 0.05 0.03 0.01 0.02 0.05 0.07 0.07 0.06 0.04 0.03 0.02 0.01 0.01 0.01 0.01
0.05 0.07 0.09 0.09 0.06 0.03 0.01 0.01 0.01 0.01 0.01 0.01 0.01 0.01 0.01 0.01 0.02 0.02 0.02 0.03 0.03 0.03 0.03 0.03 0.02 0.02 0.04 0.06 0.06 0.05 0.04 0.03 0.03 0.04 0.04 0.03 0.03 0.02
0.01 0.01 0.01 0.01 0.00 0.00 0.00 0.00 0.00 0.01 0.01 0.01 0.01 0.01 0.01 0.01 0.02 0.02 0.02 0.02 0.02 0.01 0.01 0.02 0.02 0.02 0.03 0.04 0.04 0.05 0.04 0.04 0.03 0.04 0.04 0.05 0.06 0.05